Change the Weather History Date:

Friday, November 9, 2012

  Actual Average Record
Temperature  
Mean Temperature 41 °F 36 °F  
Max Temperature 50 °F 50 °F 68 °F (1962)
Min Temperature 32 °F 22 °F 9 °F (2000)
Degree Days  
Heating Degree Days 24 29  
Month to date heating degree days 184 241  
Since 1 July heating degree days 954 1108  
Cooling Degree Days 0 0  
Month to date cooling degree days 0 0  
Year to date cooling degree days 831 486  
Moisture  
Dew Point 31 °F    
Average Humidity 74    
Maximum Humidity 89    
Minimum Humidity 58    
Precipitation  
Precipitation T in 0.02 in 0.38 in (2010)
Month to date precipitation T 0.24  
Year to date precipitation 5.08 12.58  
Sea Level Pressure  
Sea Level Pressure 29.62 in    
Wind  
Wind Speed 14 mph (ESE)    
Max Wind Speed 25 mph    
Max Gust Speed 32 mph    
Visibility 10 miles    
Events      
T = Trace of Precipitation, MM = Missing Value Source: NWS Daily Summary

Daily Weather History Graph

Daily Weather History Graph

Search for Another Location

Airport or City:

Trip Planner

Search our weather history database for the weather conditions in past years. The results will help you decide how hot, cold, wet, or windy it might be!

Date:

Astronomy

Nov. 09, 2012 Rise Set
Actual Time 6:46 AM MST 4:43 PM MST
Civil Twilight 6:16 AM MST 5:13 PM MST
Nautical Twilight 5:42 AM MST 5:47 PM MST
Astronomical Twilight 5:09 AM MST 6:20 PM MST
Moon 1:41 AM MST (11/9) 2:03 PM MST (11/9)
Length of Visible Light 10h 57m
Length of Day
9h 57m
Waning Crescent, 22% of the Moon is Illuminated
Nov 9
Waning Crescent
Nov 13
New
Nov 20
First Quarter
Nov 28
Full
Dec 6
Last Quarter

Hourly Weather History & Observations

Time (MST) Temp. Windchill Dew Point Humidity Pressure Visibility Wind Dir Wind Speed Gust Speed Precip Events Conditions
12:53 AM 36.0 °F 26.0 °F 30.0 °F 79% 29.70 in 10.0 mi SE 17.3 mph - N/A   Clear
1:53 AM 36.0 °F 25.0 °F 30.0 °F 79% 29.68 in 10.0 mi SE 20.7 mph 26.5 mph N/A   Clear
2:53 AM 35.1 °F 27.9 °F 30.0 °F 82% 29.69 in 10.0 mi SE 9.2 mph 24.2 mph N/A   Clear
3:53 AM 34.0 °F 23.8 °F 30.0 °F 85% 29.68 in 10.0 mi SSE 16.1 mph - N/A   Clear
4:53 AM 33.1 °F 23.4 °F 30.0 °F 89% 29.70 in 10.0 mi SE 13.8 mph - N/A   Clear
5:53 AM 33.1 °F 26.9 °F 30.0 °F 89% 29.68 in 10.0 mi SE 6.9 mph - N/A   Clear
6:53 AM 33.1 °F 22.2 °F 30.9 °F 92% 29.69 in 10.0 mi SE 17.3 mph - N/A   Clear
7:53 AM 33.1 °F 23.4 °F 30.9 °F 92% 29.70 in 10.0 mi SE 13.8 mph - N/A   Clear
8:53 AM 35.1 °F 24.5 °F 32.0 °F 89% 29.69 in 10.0 mi SE 18.4 mph - N/A   Clear
9:53 AM 35.1 °F 24.8 °F 30.9 °F 85% 29.70 in 10.0 mi SE 17.3 mph 23.0 mph N/A   Clear
10:53 AM 43.0 °F 34.8 °F 33.1 °F 68% 29.65 in 10.0 mi SE 18.4 mph - N/A   Clear
11:53 AM 46.9 °F - 33.1 °F 59% 29.60 in 10.0 mi SE 16.1 mph 20.7 mph N/A   Mostly Cloudy
12:53 PM 46.0 °F 39.0 °F 32.0 °F 58% 29.56 in 10.0 mi SE 17.3 mph - N/A   Overcast
1:53 PM 45.0 °F 37.1 °F 30.9 °F 58% 29.55 in 10.0 mi ESE 19.6 mph - N/A   Mostly Cloudy
2:53 PM 46.9 °F - 32.0 °F 56% 29.53 in 10.0 mi SE 13.8 mph 19.6 mph N/A   Mostly Cloudy
3:53 PM 45.0 °F 36.9 °F 33.1 °F 63% 29.54 in 10.0 mi ESE 20.7 mph - N/A   Clear
4:53 PM 43.0 °F 34.5 °F 33.1 °F 68% 29.55 in 10.0 mi ESE 19.6 mph 26.5 mph N/A   Clear
5:53 PM 44.1 °F 36.8 °F 33.1 °F 65% 29.56 in 10.0 mi SE 16.1 mph - N/A   Overcast
6:53 PM 43.0 °F 37.7 °F 34.0 °F 71% 29.60 in 10.0 mi East 9.2 mph - 0.00 in   Overcast
7:53 PM 42.1 °F 35.7 °F 33.1 °F 70% 29.57 in 10.0 mi ESE 11.5 mph - 0.00 in   Overcast
8:53 PM 36.0 °F 29.6 °F 32.0 °F 86% 29.60 in 10.0 mi NE 8.1 mph - N/A   Scattered Clouds
9:53 PM 34.0 °F 28.0 °F 30.9 °F 89% 29.62 in 10.0 mi North 6.9 mph - N/A   Mostly Cloudy
10:53 PM 33.1 °F 26.1 °F 30.9 °F 92% 29.59 in 10.0 mi North 8.1 mph - N/A   Mostly Cloudy
11:06 PM 33.8 °F 27.0 °F 30.2 °F 87% 29.58 in 10.0 mi North 8.1 mph - N/A   Overcast
11:19 PM 32.0 °F 24.8 °F 30.2 °F 93% 29.59 in 10.0 mi North 8.1 mph - N/A   Overcast
11:53 PM 32.0 °F 24.8 °F 30.9 °F 96% 29.56 in 9.0 mi NNE 8.1 mph - N/A   Overcast